When you browse on this site, cookies collect data to enhance your experience and personalize the content and advertising you see.
Visit our Privacy Policy to learn more. By continuing to use the site, you agree to this use of cookies and data.
  • In Portugal
  • List of Countries
  • For 7 days
  • Water Temperature
  • Satellite Maps
  • Weather Map
  • Weather Widgets
  • user-avatar
    Login

    Hourly Weather Gjirokaster

    Today, 18 January, Friday

    Time Temperature Precipitation Wind Pressure Humidity
    00:00 -3°C° 0 mm 2 mps 650 mmHg 93%
    01:00 -2°C° 0 mm 2 mps 650 mmHg 93%
    02:00 -2°C° 0.1 mm 2 mps 650 mmHg 94%
    03:00 -2°C° 0.1 mm 2 mps 650 mmHg 94%
    04:00 -2°C° 0.1 mm 2 mps 650 mmHg 95%
    05:00 -2°C° 0.2 mm 3 mps 650 mmHg 95%
    06:00 -2°C° 0.2 mm 3 mps 649 mmHg 95%
    07:00 -1°C° 0.2 mm 3 mps 649 mmHg 95%
    08:00 -1°C° 1.4 mm 3 mps 649 mmHg 95%
    09:00 -1°C° 1.4 mm 3 mps 649 mmHg 95%
    10:00 -1°C° 1.4 mm 3 mps 650 mmHg 95%
    11:00 -1°C° 1.6 mm 3 mps 649 mmHg 95%
    12:00 -1°C° 1.6 mm 3 mps 649 mmHg 95%
    13:00 -1°C° 1.6 mm 3 mps 649 mmHg 95%
    14:00 -1°C° 0.6 mm 3 mps 649 mmHg 94%
    15:00 -1°C° 0.6 mm 3 mps 649 mmHg 94%
    16:00 -1°C° 0.6 mm 3 mps 649 mmHg 93%
    17:00 -1°C° 0.1 mm 3 mps 649 mmHg 93%
    18:00 -1°C° 0.1 mm 3 mps 649 mmHg 93%
    19:00 -2°C° 0.1 mm 3 mps 649 mmHg 93%
    20:00 -2°C° 0.3 mm 3 mps 649 mmHg 94%
    21:00 -1°C° 0.3 mm 3 mps 649 mmHg 94%
    22:00 -1°C° 0.3 mm 3 mps 649 mmHg 95%
    23:00 -1°C° 0.4 mm 3 mps 649 mmHg 95%

    Tomorrow, 19 January, Saturday

    Time Temperature Precipitation Wind Pressure Humidity
    00:00 -1°C° 0.4 mm 3 mps 649 mmHg 95%
    01:00 -1°C° 0.4 mm 3 mps 649 mmHg 95%
    02:00 -1°C° 0.1 mm 3 mps 649 mmHg 94%
    03:00 -1°C° 0.1 mm 3 mps 649 mmHg 93%
    04:00 -1°C° 0.1 mm 3 mps 649 mmHg 92%
    05:00 -1°C° 0 mm 3 mps 649 mmHg 90%
    06:00 -1°C° 0 mm 3 mps 649 mmHg 89%
    07:00 -2°C° 0 mm 2 mps 649 mmHg 88%
    08:00 0°C° 0 mm 3 mps 649 mmHg 85%
    09:00 +1°C° 0 mm 3 mps 650 mmHg 81%
    10:00 +2°C° 0 mm 3 mps 650 mmHg 78%
    11:00 +3°C° 0.3 mm 3 mps 650 mmHg 80%
    12:00 +3°C° 0.3 mm 4 mps 650 mmHg 81%
    13:00 +3°C° 0.3 mm 4 mps 649 mmHg 83%
    14:00 +2°C° 0.9 mm 3 mps 649 mmHg 86%
    15:00 +1°C° 0.9 mm 3 mps 649 mmHg 89%
    16:00 +1°C° 0.9 mm 3 mps 648 mmHg 92%
    17:00 +1°C° 0.3 mm 3 mps 648 mmHg 92%
    18:00 0°C° 0.3 mm 3 mps 649 mmHg 91%
    19:00 0°C° 0.3 mm 3 mps 649 mmHg 90%
    20:00 0°C° 0.6 mm 3 mps 649 mmHg 90%
    21:00 0°C° 0.6 mm 3 mps 649 mmHg 89%
    22:00 0°C° 0.6 mm 3 mps 649 mmHg 89%
    23:00 0°C° 0.8 mm 3 mps 649 mmHg 89%

    Day after tomorrow, 20 January, Sunday

    Time Temperature Precipitation Wind Pressure Humidity
    00:00 0°C° 0.8 mm 3 mps 648 mmHg 89%
    01:00 0°C° 0.8 mm 3 mps 648 mmHg 89%
    02:00 0°C° 0.2 mm 3 mps 648 mmHg 89%
    03:00 -1°C° 0.2 mm 3 mps 648 mmHg 89%
    04:00 -1°C° 0.2 mm 3 mps 647 mmHg 89%
    05:00 -1°C° 0.1 mm 2 mps 648 mmHg 89%
    06:00 -1°C° 0.1 mm 2 mps 648 mmHg 90%
    07:00 -1°C° 0.1 mm 2 mps 648 mmHg 90%
    08:00 +1°C° 0.1 mm 2 mps 648 mmHg 87%
    09:00 +1°C° 0.1 mm 3 mps 649 mmHg 84%
    10:00 +3°C° 0.1 mm 3 mps 649 mmHg 81%
    11:00 +3°C° 0.4 mm 3 mps 649 mmHg 80%
    12:00 +4°C° 0.4 mm 2 mps 649 mmHg 78%
    13:00 +4°C° 0.4 mm 2 mps 649 mmHg 77%
    14:00 +4°C° 0.7 mm 2 mps 649 mmHg 80%
    15:00 +4°C° 0.7 mm 2 mps 649 mmHg 83%
    16:00 +4°C° 0.7 mm 1 mps 648 mmHg 86%
    17:00 +3°C° 0.1 mm 1 mps 648 mmHg 87%
    18:00 +3°C° 0.1 mm 1 mps 648 mmHg 89%
    19:00 +2°C° 0.1 mm 1 mps 648 mmHg 91%
    20:00 +2°C° 0 mm 1 mps 649 mmHg 90%
    21:00 +1°C° 0 mm 1 mps 649 mmHg 90%
    22:00 +1°C° 0 mm 1 mps 649 mmHg 90%
    23:00 +1°C° 0 mm 1 mps 649 mmHg 89%

    21 January, Monday

    Time Temperature Precipitation Wind Pressure Humidity
    00:00 +1°C° 0 mm 1 mps 649 mmHg 89%
    01:00 0°C° 0 mm 1 mps 649 mmHg 88%
    02:00 0°C° 0 mm 1 mps 649 mmHg 88%
    03:00 0°C° 0 mm 1 mps 648 mmHg 88%
    04:00 0°C° 0 mm 1 mps 648 mmHg 87%
    05:00 -2°C° 0 mm 2 mps 648 mmHg 87%
    06:00 -2°C° 0 mm 2 mps 649 mmHg 87%
    07:00 -3°C° 0 mm 2 mps 649 mmHg 87%
    08:00 -1°C° 0 mm 2 mps 649 mmHg 83%
    09:00 +1°C° 0 mm 2 mps 650 mmHg 79%
    10:00 +3°C° 0 mm 2 mps 651 mmHg 76%
    11:00 +3°C° 0 mm 2 mps 650 mmHg 74%
    12:00 +4°C° 0 mm 2 mps 650 mmHg 71%
    13:00 +5°C° 0 mm 2 mps 650 mmHg 69%
    14:00 +4°C° 0 mm 2 mps 650 mmHg 73%
    15:00 +4°C° 0 mm 2 mps 650 mmHg 76%
    16:00 +3°C° 0 mm 2 mps 650 mmHg 79%
    17:00 +3°C° 0 mm 2 mps 650 mmHg 82%
    18:00 +2°C° 0 mm 2 mps 650 mmHg 85%
    19:00 0°C° 0 mm 3 mps 650 mmHg 88%
    20:00 0°C° 0 mm 3 mps 650 mmHg 87%
    21:00 0°C° 0 mm 3 mps 650 mmHg 86%
    22:00 0°C° 0 mm 3 mps 650 mmHg 84%
    23:00 -1°C° 0 mm 3 mps 649 mmHg 83%

    22 January, Tuesday

    Time Temperature Precipitation Wind Pressure Humidity
    00:00 -1°C° 0 mm 3 mps 649 mmHg 81%
    01:00 -2°C° 0 mm 3 mps 649 mmHg 79%
    02:00 -2°C° 0.1 mm 3 mps 648 mmHg 79%
    03:00 -2°C° 0.1 mm 3 mps 648 mmHg 78%
    04:00 -2°C° 0.1 mm 3 mps 647 mmHg 78%
    05:00 -3°C° 0.9 mm 4 mps 647 mmHg 79%
    06:00 -2°C° 0.9 mm 4 mps 647 mmHg 81%
    07:00 -2°C° 0.9 mm 4 mps 646 mmHg 82%
    08:00 -2°C° 0.6 mm 4 mps 646 mmHg 83%
    09:00 -2°C° 0.6 mm 4 mps 646 mmHg 84%
    10:00 -1°C° 0.6 mm 4 mps 646 mmHg 85%
    11:00 -1°C° 0.5 mm 5 mps 645 mmHg 84%
    12:00 0°C° 0.5 mm 5 mps 645 mmHg 84%
    13:00 -1°C° 0.5 mm 6 mps 644 mmHg 83%
    14:00 0°C° 3.5 mm 5 mps 644 mmHg 87%
    15:00 0°C° 3.5 mm 5 mps 643 mmHg 91%
    16:00 -1°C° 3.5 mm 4 mps 643 mmHg 95%
    17:00 -1°C° 1.6 mm 4 mps 643 mmHg 95%
    18:00 -1°C° 1.6 mm 4 mps 643 mmHg 94%
    19:00 0°C° 1.6 mm 3 mps 643 mmHg 93%
    20:00 0°C° 0.7 mm 3 mps 643 mmHg 94%
    21:00 0°C° 0.7 mm 3 mps 643 mmHg 94%
    22:00 -1°C° 0.7 mm 3 mps 643 mmHg 94%
    23:00 -1°C° 0.3 mm 3 mps 643 mmHg 93%

    23 January, Wednesday

    Time Temperature Precipitation Wind Pressure Humidity
    00:00 -1°C° 0.3 mm 3 mps 642 mmHg 92%
    01:00 -1°C° 0.3 mm 3 mps 642 mmHg 92%
    02:00 -1°C° 0.8 mm 3 mps 642 mmHg 93%
    03:00 -1°C° 0.8 mm 3 mps 641 mmHg 94%
    04:00 -2°C° 0.8 mm 3 mps 641 mmHg 95%
    05:00 -2°C° 2.3 mm 3 mps 640 mmHg 95%
    06:00 -2°C° 2.3 mm 3 mps 640 mmHg 94%
    07:00 -3°C° 2.3 mm 4 mps 640 mmHg 94%
    08:00 -2°C° 0.3 mm 4 mps 640 mmHg 93%
    09:00 -2°C° 0.3 mm 4 mps 640 mmHg 91%
    10:00 -1°C° 0.3 mm 4 mps 641 mmHg 90%
    11:00 -1°C° 0.2 mm 4 mps 640 mmHg 87%
    12:00 0°C° 0.2 mm 4 mps 640 mmHg 84%
    13:00 0°C° 0.2 mm 4 mps 640 mmHg 81%
    14:00 0°C° 0.2 mm 4 mps 639 mmHg 81%
    15:00 -1°C° 0.2 mm 4 mps 639 mmHg 82%
    16:00 -1°C° 0.2 mm 4 mps 638 mmHg 83%
    17:00 -1°C° 0.8 mm 4 mps 638 mmHg 85%
    18:00 -2°C° 0.8 mm 4 mps 637 mmHg 87%
    19:00 -2°C° 0.8 mm 4 mps 637 mmHg 89%
    20:00 -2°C° 1.3 mm 4 mps 636 mmHg 87%
    21:00 -3°C° 1.3 mm 4 mps 636 mmHg 86%
    22:00 -3°C° 1.3 mm 4 mps 635 mmHg 84%
    23:00 -3°C° 2.4 mm 4 mps 635 mmHg 87%
    Show more